Weather History for Safford, AZ

Change the Weather History Date:

Tuesday, October 23, 2012

  Actual Average Record
Temperature  
Mean Temperature 66 °F -  
Max Temperature 84 °F 76 °F 91 °F (1973)
Min Temperature 48 °F 44 °F 32 °F (1951)
Cooling Degree Days 1    
Growing Degree Days 16 (Base 50)    
Moisture  
Dew Point 34 °F    
Average Humidity 32    
Maximum Humidity 50    
Minimum Humidity 17    
Precipitation  
Precipitation 0.00 in - - ()
Sea Level Pressure  
Sea Level Pressure 29.82 in    
Wind  
Wind Speed 2 mph (NNW)    
Max Wind Speed 9 mph    
Max Gust Speed -    
Visibility 10 miles    
Events      
Averages and records for this station are not official NWS values.
T = Trace of Precipitation, MM = Missing Value Source: NWS Daily Summary

Daily Weather History Graph

Daily Weather History Graph

Search for Another Location

Airport:

Trip Planner

Search our weather history database for the weather conditions in past years. The results will help you decide how hot, cold, wet, or windy it might be!

Date:

Astronomy

Oct. 23, 2012 Rise Set
Actual Time 6:29 AM MST 5:35 PM MST
Civil Twilight 6:04 AM MST 6:00 PM MST
Nautical Twilight 5:35 AM MST 6:29 PM MST
Astronomical Twilight 5:06 AM MST 6:58 PM MST
Moon 2:04 PM MST 12:43 AM MST
Length of Visible Light 11h 56m
Length of Day
11h 06m
Waxing Gibbous, 67% of the Moon is Illuminated
Oct 23
Waxing Gibbous
Oct 29
Full
Nov 6
Last Quarter
Nov 13
New
Nov 20
First Quarter

Hourly Weather History & Observations

Time (MST) Temp. Dew Point Humidity Pressure Visibility Wind Dir Wind Speed Gust Speed Precip Events Conditions
12:51 AM 55.0 °F 33.1 °F 43% 29.83 in 10.0 mi Calm Calm - N/A   Clear
1:51 AM 54.0 °F 32.0 °F 43% 29.84 in 10.0 mi Calm Calm - N/A   Clear
2:51 AM 51.1 °F 30.9 °F 46% 29.84 in 10.0 mi Calm Calm - N/A   Clear
3:51 AM 51.1 °F 30.9 °F 46% 29.84 in 10.0 mi Calm Calm - N/A   Clear
4:51 AM 48.9 °F 30.9 °F 50% 29.86 in 10.0 mi NE 4.6 mph - N/A   Clear
5:51 AM 48.9 °F 30.9 °F 50% 29.87 in 10.0 mi Calm Calm - N/A   Clear
6:51 AM 48.9 °F 30.9 °F 50% 29.89 in 10.0 mi Calm Calm - N/A   Clear
7:51 AM 55.9 °F 32.0 °F 40% 29.90 in 10.0 mi Calm Calm - N/A   Clear
8:51 AM 64.0 °F 34.0 °F 33% 29.89 in 10.0 mi Calm Calm - N/A   Clear
9:51 AM 71.1 °F 34.0 °F 26% 29.89 in 10.0 mi ESE 8.1 mph - N/A   Clear
10:51 AM 73.9 °F 35.1 °F 24% 29.87 in 10.0 mi Variable 6.9 mph - N/A   Clear
11:51 AM 78.1 °F 36.0 °F 22% 29.85 in 10.0 mi SE 6.9 mph - N/A   Clear
12:51 PM 80.1 °F 35.1 °F 20% 29.81 in 10.0 mi Variable 4.6 mph - N/A   Clear
1:51 PM 82.9 °F 34.0 °F 17% 29.78 in 10.0 mi Variable 3.5 mph - N/A   Clear
2:51 PM 84.0 °F 34.0 °F 17% 29.76 in 10.0 mi NW 5.8 mph - N/A   Clear
3:51 PM 82.9 °F 35.1 °F 18% 29.76 in 10.0 mi WNW 8.1 mph - N/A   Clear
4:51 PM 81.0 °F 36.0 °F 20% 29.76 in 10.0 mi WNW 6.9 mph - N/A   Clear
5:51 PM 78.1 °F 36.0 °F 22% 29.77 in 10.0 mi WNW 6.9 mph - N/A   Clear
6:51 PM 73.9 °F 36.0 °F 25% 29.78 in 10.0 mi NW 4.6 mph - N/A   Clear
7:51 PM 72.0 °F 36.0 °F 27% 29.78 in 10.0 mi West 9.2 mph - N/A   Clear
8:51 PM 68.0 °F 35.1 °F 30% 29.78 in 10.0 mi NNW 3.5 mph - N/A   Clear
9:51 PM 63.0 °F 33.1 °F 33% 29.79 in 10.0 mi East 3.5 mph - N/A   Clear
10:51 PM 62.1 °F 34.0 °F 35% 29.79 in 10.0 mi SE 4.6 mph - N/A   Clear
11:51 PM 60.1 °F 33.1 °F 36% 29.79 in 10.0 mi Calm Calm - N/A   Clear